Home   Weather   Bautzen   Past weeks

Flag for Germany Past Weather in Bautzen, Saxony, Germany — Yesterday and Last 2 Weeks

41 °F


Feels Like: 36 °F
Forecast: 45 / 52 °F
Wind: 7 mph from Southwest

Location: Dresden-Klotzsche

Current Time: Oct 27, 2016 at 9:15:12 AM

Latest Report: Oct 27, 2016 at 8:20 AM

Visibility: 2 mi

Pressure: 30.42 "Hg

Humidity: 100%

Dew Point: 41 °F

Location of BautzenLocation

Past Weather in Bautzen — Graph


Bautzen Temperature Yesterday

Maximum temperature yesterday: 48 °F (at 3:50 PM)
Minimum temperature yesterday: 43 °F (at 6:50 PM)
Average temperature yesterday: 45 °F

High & Low Weather Summary for the Past Weeks

High63 °F (Oct 16, 2:50 PM)100% (Oct 12, 7:20 AM)30.42 "Hg (Oct 12, 7:20 AM)
Low36 °F (Oct 23, 5:20 AM)64% (Oct 16, 2:50 PM)29.80 "Hg (Oct 15, 1:20 AM)
Average47 °F90%30.06 "Hg
* Reported Oct 12 7:20 AM — Oct 27 7:50 AM, Bautzen, Weather by CustomWeather, © 2016

Note: Actual official high and low records may vary slightly from our data, if they occured in-between our weather recording intervals... More about our weather records


Bautzen Weather History for the Previous 24 Hours

Scroll right to see more
Time TempWeatherWind HumidityBarometerVisibility
7:50 AM
Thu, Oct 27
41 °FFog.5 mph100%30.42 "Hg2 mi
7:20 AM41 °FFog.6 mph100%30.42 "Hg2 mi
6:50 AM41 °FFog.5 mph100%30.42 "Hg3 mi
6:20 AM41 °FFog.6 mph100%30.39 "Hg2 mi
5:50 AM41 °FFog.5 mph100%30.39 "Hg3 mi
5:20 AM43 °FFog.1 mph93%30.39 "Hg3 mi
4:50 AM43 °FPassing clouds.2 mph93%30.39 "Hg4 mi
4:20 AM43 °FFog.6 mph93%30.39 "Hg3 mi
3:50 AM43 °FFog.3 mph100%30.39 "Hg2 mi
3:20 AM43 °FFog.6 mph100%30.39 "Hg2 mi
2:50 AM43 °FFog.3 mph100%30.39 "Hg3 mi
2:20 AM43 °FFog.2 mph100%30.39 "Hg3 mi
1:50 AM43 °FFog.1 mph100%30.39 "Hg2 mi
1:20 AM43 °FFog.1 mph100%30.39 "Hg2 mi
12:20 AM43 °FFog.3 mph100%30.42 "Hg2 mi
11:50 PM
Wed, Oct 26
43 °FPassing clouds.1 mph100%30.39 "Hg4 mi
11:20 PM43 °FPassing clouds.2 mph100%30.39 "Hg4 mi
10:50 PM43 °FPassing clouds.1 mph100%30.39 "Hg4 mi
10:20 PM43 °FFog.2 mph93%30.39 "Hg3 mi
9:50 PM43 °FFog.No wind93%30.39 "Hg3 mi
9:20 PM43 °FPassing clouds.1 mph100%30.39 "Hg4 mi
8:50 PM45 °FFog.2 mph93%30.39 "Hg3 mi
8:20 PM45 °FFog.1 mph93%30.39 "Hg2 mi
7:50 PM45 °FFog.2 mph93%30.39 "Hg3 mi
7:20 PM45 °FFog.3 mph93%30.39 "Hg3 mi
6:50 PM43 °FFog.6 mph93%30.39 "Hg3 mi
6:20 PM45 °FFog.3 mph100%30.39 "Hg3 mi
5:50 PM46 °FFog.3 mph93%30.39 "Hg3 mi
5:20 PM46 °FFog.5 mph93%30.36 "Hg3 mi
4:50 PM46 °FBroken clouds.3 mph93%30.39 "Hg4 mi
4:20 PM48 °FBroken clouds.5 mph87%30.39 "Hg5 mi
3:50 PM48 °FBroken clouds.2 mph87%30.36 "Hg5 mi
3:20 PM46 °FBroken clouds.1 mph87%30.36 "Hg4 mi
2:50 PM46 °FPartly sunny.2 mph93%30.36 "Hg4 mi
2:20 PM46 °FPartly sunny.2 mph87%30.36 "Hg4 mi
1:50 PM46 °FPartly sunny.3 mph87%30.39 "Hg4 mi
1:20 PM46 °FFog.5 mph93%30.39 "Hg3 mi
12:50 PM46 °FFog.2 mph93%30.39 "Hg2 mi
12:20 PM45 °FFog.5 mph100%30.39 "Hg2 mi
11:50 AM45 °FFog.7 mph100%30.39 "Hg1 mi
11:20 AM45 °FFog.5 mph100%30.39 "Hg1 mi
10:50 AM45 °FFog.5 mph100%30.39 "Hg1 mi
10:20 AM45 °FFog.3 mph100%30.39 "Hg1 mi
9:50 AM45 °FFog.3 mph100%30.36 "Hg1 mi
9:20 AM45 °FFog.5 mph100%30.36 "Hg1 mi
Weather by CustomWeather, © 2016

See weather overviewHow to use our weather pages